ARIANE 3 DEB, 26807

Orbit data source: Space-Track

ARIANE 3 DEB, 26807 is space debris in HEO originally from a launch on Thu, 08 Sep 1988 UTC launched from the French Guiana (FRGUI). Debris objects in space refer to the collection of defunct objects orbiting the Earth. Examples of debris include non-operational satellites, rocket bodies, and fragments generated from explosions, collisions, or faulty payload assembly.

Loading next visibility...
Identifier
26807, 1988-081H
Orbit
HEO
Country
Flag of FRFR
Related business
Manufacturer
Unknown
Mission
Spacecraft
Bus & Motor
Unknown
Mass
Unknown
Launch date (UTC)
1988-09-08 (37 years ago)
Launch vehicle
Unknown
Launch site
French Guiana (FRGUI)
Object type
Payload
Rocket body
Debris
Shape & HBR
Unknown shape, 1.1 m
Radar Cross Section
Medium (>0.1 m² and <1 m²)

Expand to show TLE details & history
Last TLE update: 1 month ago

TLE from 1 month ago
0 ARIANE 3 DEB
1 26807U 88081H   25357.28748817 -.00000087  00000-0  00000-0 0  9991
2 26807   6.4645  20.7865 7050255 300.8023  33.4920  2.17377120208784
Epoch: 2025-12-23T06:53Z
TLE epoch observation values (Epoch: 2025-12-23T06:53:58.977Z)
Latitude
5.69497°
Longitude
-113.71096°
Altitude
13,346.751 km
Speed
4.958 km/s
True Right ascension
05h 27m 25s
True Declination
5° 40' 58"
Sunlit
Object was in daylight at epoch
Visualization orbit readout
Latitude
Unknown
Longitude
Unknown
Altitude
Unknown
Speed
Unknown
Apparent Right ascension
Unknown
Apparent Declination
Unknown
Sunlit
N/A
Visualization observer readout
Local Sidereal Time
12:20:24
Azimuth
Unknown
Elevation
Unknown
Doppler factor
Unknown
Orbital elements
Apogee altitude
36,549.81 km
Perigee altitude
1,048.526 km
Semi-major axis
25,177.305 km
Eccentricity
0.70503
Inclination
6.4645°
RAAN
20.7865°
Arg. of periapsis
300.8023°
True anomaly
120.31422°
Mean anomaly
33.492°
Eccentric anomaly
71.88472°
Mean motion
0.54329 °/min
Orbital period
662.63 mins
BSTAR
0
Loading maneuver chart data...
Computing Atmospheric mass density...
Loading historical data...
Loading historical data...
Loading historical data...
Loading historical data...
Loading historical data...
Loading historical data...
Loading historical data...

Documentation

Showing up to 5 results
|